Chatham, MA

11:55 AM EDT on July 23, 2017 (GMT -0400)
Chatham Municipal

Weather History for KCQX - December, 2011

Change the Weather History Date:

Thursday, December 8, 2011

  Actual Average Record
Temperature  
Mean Temperature 46 °F -  
Max Temperature 59 °F 44 °F 59 °F (2011)
Min Temperature 30 °F 31 °F 16 °F (2008)
Degree Days  
Heating Degree Days 18    
Moisture  
Dew Point 38 °F    
Average Humidity 78    
Maximum Humidity 100    
Minimum Humidity 45    
Precipitation  
Precipitation 0.17 in - - ()
Sea Level Pressure  
Sea Level Pressure 29.71 in    
Wind  
Wind Speed 12 mph (West)    
Max Wind Speed 20 mph    
Max Gust Speed 40 mph    
Visibility 8 miles    
Events Rain    
Averages and records for this station are not official NWS values.
T = Trace of Precipitation, MM = Missing Value Source: NWS Daily Summary

Daily Weather History Graph

Daily Weather History Graph

Search for Another Location

Airport or City:

Trip Planner

Search our weather history database for the weather conditions in past years. The results will help you decide how hot, cold, wet, or windy it might be!

Date:

Astronomy

Dec. 08, 2011 Rise Set
Actual Time 6:54 AM EST 4:09 PM EST
Civil Twilight 6:22 AM EST 4:40 PM EST
Nautical Twilight 5:47 AM EST 5:15 PM EST
Astronomical Twilight 5:14 AM EST 5:49 PM EST
Moon 2:46 PM EST (12/8) 5:02 AM EST (12/8)
Length of Visible Light 10h 17m
Length of Day
9h 15m
Waxing Gibbous, 97% of the Moon is Illuminated
Dec 8
Waxing Gibbous
Dec 10
Full
Dec 17
Last Quarter
Dec 24
New
Jan 1
First Quarter

Hourly Weather History & Observations

Time (EST) Temp. Windchill Dew Point Humidity Pressure Visibility Wind Dir Wind Speed Gust Speed Precip Events Conditions
12:52 AM 57.9 °F - 57.9 °F 100% 29.34 in 3.0 mi South 11.5 mph 20.7 mph 0.01 in Rain Light Rain
1:32 AM 57.2 °F - 57.2 °F 100% 29.30 in 6.0 mi Variable 6.9 mph 16.1 mph 0.02 in Rain Light Rain
1:43 AM 57.2 °F - 57.2 °F 100% 29.29 in 5.0 mi SSW 8.1 mph 17.3 mph 0.02 in Rain Light Rain
1:50 AM 57.2 °F - 57.2 °F 100% 29.27 in 6.0 mi SSW 13.8 mph 19.6 mph 0.02 in Rain Light Rain
1:52 AM 57.0 °F - 57.0 °F 100% 29.27 in 6.0 mi SSW 9.2 mph 19.6 mph 0.02 in Rain Light Rain
2:11 AM 57.2 °F - 57.2 °F 100% 29.23 in 8.0 mi SSW 17.3 mph 29.9 mph 0.01 in   Overcast
2:18 AM 59.0 °F - 57.2 °F 94% 29.22 in 8.0 mi SSW 16.1 mph 28.8 mph 0.01 in   Overcast
2:52 AM 57.9 °F - 57.0 °F 97% 29.18 in 7.0 mi SSW 15.0 mph 27.6 mph 0.01 in Rain Light Rain
3:24 AM 57.2 °F - 57.2 °F 100% 29.14 in 7.0 mi SW 12.7 mph 29.9 mph 0.01 in   Overcast
3:33 AM 57.2 °F - 55.4 °F 94% 29.15 in 6.0 mi WSW 13.8 mph 23.0 mph 0.01 in   Overcast
3:52 AM 48.9 °F - 48.0 °F 97% 29.18 in 4.0 mi WNW 10.4 mph 19.6 mph 0.02 in Rain Light Rain
4:40 AM 42.8 °F 35.4 °F 41.0 °F 93% 29.30 in 6.0 mi NW 15.0 mph 31.1 mph 0.05 in Rain Light Rain
4:52 AM 43.0 °F 34.5 °F 41.0 °F 93% 29.33 in 3.0 mi NW 19.6 mph 40.3 mph 0.08 in Rain Rain
5:02 AM 42.8 °F 34.8 °F 41.0 °F 93% 29.35 in 3.0 mi NW 17.3 mph 39.1 mph 0.01 in Rain Light Rain
5:52 AM 41.0 °F 32.2 °F 37.9 °F 89% 29.43 in 10.0 mi WNW 18.4 mph 34.5 mph 0.03 in   Overcast
6:52 AM 39.9 °F 32.1 °F 36.0 °F 86% 29.60 in 10.0 mi WNW 13.8 mph 29.9 mph N/A   Overcast
7:52 AM 39.9 °F 32.1 °F 34.0 °F 79% 29.70 in 10.0 mi West 13.8 mph 25.3 mph N/A   Mostly Cloudy
8:00 AM 39.2 °F 31.6 °F 33.8 °F 81% 29.71 in 10.0 mi West 12.7 mph 25.3 mph N/A   Scattered Clouds
8:29 AM 39.2 °F 30.8 °F 33.8 °F 81% 29.76 in 10.0 mi West 15.0 mph 28.8 mph N/A   Mostly Cloudy
8:52 AM 39.9 °F 32.1 °F 30.9 °F 70% 29.81 in 10.0 mi WNW 13.8 mph 24.2 mph N/A   Overcast
9:29 AM 41.0 °F 34.7 °F 30.2 °F 65% 29.84 in 10.0 mi WNW 10.4 mph 21.9 mph N/A   Mostly Cloudy
9:43 AM 41.0 °F 33.9 °F 30.2 °F 65% 29.85 in 10.0 mi WNW 12.7 mph 24.2 mph N/A   Scattered Clouds
9:52 AM 39.9 °F 33.4 °F 30.0 °F 68% 29.88 in 10.0 mi WNW 10.4 mph 24.2 mph N/A   Partly Cloudy
10:26 AM 41.0 °F 34.3 °F 30.2 °F 65% 29.91 in 10.0 mi West 11.5 mph 21.9 mph N/A   Mostly Cloudy
10:34 AM 41.0 °F 34.3 °F 30.2 °F 65% 29.92 in 10.0 mi WNW 11.5 mph 24.2 mph N/A   Mostly Cloudy
10:52 AM 41.0 °F 33.1 °F 26.1 °F 55% 29.93 in 10.0 mi WNW 15.0 mph 25.3 mph N/A   Partly Cloudy
11:52 AM 42.1 °F 34.5 °F 25.0 °F 51% 29.96 in 10.0 mi NW 15.0 mph 28.8 mph N/A   Clear
12:52 PM 43.0 °F 37.2 °F 25.0 °F 49% 29.96 in 10.0 mi WNW 10.4 mph 31.1 mph N/A   Clear
1:52 PM 44.1 °F 38.1 °F 24.1 °F 45% 29.98 in 10.0 mi WNW 11.5 mph 20.7 mph N/A   Clear
2:52 PM 44.1 °F 40.1 °F 24.1 °F 45% 30.04 in 10.0 mi Variable 6.9 mph 20.7 mph N/A   Clear
4:52 PM 39.0 °F 35.7 °F 26.1 °F 60% 30.14 in 10.0 mi West 4.6 mph - N/A   Clear
5:52 PM 37.9 °F 34.4 °F 27.0 °F 65% 30.19 in 10.0 mi West 4.6 mph - N/A   Clear
6:52 PM 37.0 °F 33.3 °F 27.0 °F 67% 30.24 in 10.0 mi West 4.6 mph - N/A   Clear
7:52 PM 37.0 °F 31.6 °F 26.1 °F 65% 30.28 in 10.0 mi West 6.9 mph - N/A   Clear
8:52 PM 36.0 °F 33.3 °F 25.0 °F 64% 30.30 in 10.0 mi West 3.5 mph - N/A   Clear
9:52 PM 35.1 °F 32.2 °F 25.0 °F 67% 30.30 in 10.0 mi West 3.5 mph - N/A   Clear
10:52 PM 34.0 °F 29.8 °F 25.0 °F 70% 30.30 in 10.0 mi NW 4.6 mph - N/A   Clear
11:52 PM 30.9 °F 27.5 °F 26.1 °F 82% 30.30 in 10.0 mi WNW 3.5 mph - N/A   Clear